Regional Weather Roundup
Issued by NWS

Home | Current Version | Previous Version | Text Only | Print | Product List | Glossary On
Versions: 1 2 3 4 5 6 7 8 9 10 11 12 13 14 15 16 17 18 19 20 21 22 23 24 25 26 27 28 29 30 31 32 33 34 35 36 37 38 39 40 41 42 43 44 45 46 47 48 49 50
000
ASUS46 KSEW 271010
RWRWA

WASHINGTON REGIONAL WEATHER ROUNDUP
NATIONAL WEATHER SERVICE SEATTLE WA
300 AM PDT WED MAY 27 2015

NOTE:"FAIR" INDICATES FEW OR NO CLOUDS BELOW 12,000 FEET WITH NO
SIGNIFICANT WEATHER AND/OR OBSTRUCTIONS TO VISIBILITY.

WAZ505-507>509-271100-
SEATTLE, TACOMA, EVERETT, AND VICINITY

CITY           SKY/WX    TMP DP  RH WIND       PRES   REMARKS
EVERETT        CLEAR     55  51  86 NE3       30.06S
BOEING FIELD   MOCLDY    61  52  72 CALM      30.05S
RENTON         CLEAR     55  51  86 S3        30.05S
SEATAC AIRPORT PTCLDY    55  51  86 S5        30.05F
JBLM-MCCHORD   CLEAR     48  48  99 CALM      30.05S
PUYALLUP       CLOUDY    50  50 100 CALM      30.06S
BREMERTON      PTCLDY    52  52 100 CALM      30.08S
JBLM-FT LEWIS  CLEAR     50  50  99 S5        30.05R
TACOMA NARROWS CLEAR     55  51  86 CALM      30.06S
$$

WAZ001-503-506-510-514-515-271100-
NORTH INTERIOR

CITY           SKY/WX    TMP DP  RH WIND       PRES   REMARKS
BELLINGHAM     PTCLDY    56  53  90 S5        30.03F
FRIDAY HARBOR  CLOUDY    50  49  96 E3        30.05R
EASTSOUND      CLEAR     54  50  87 S3        30.02R
PORT ANGELES   FOG       51  50  96 W5        30.05S VSB 3/4
PORT TOWNSEND  CLOUDY    52  52 100 CALM      30.05R
NAS WHIDBEY    FOG       53  50  89 VRB3      30.10R VSB 1
ARLINGTON      CLOUDY    52  46  82 CALM      30.06S
BURLINGTON     CLOUDY    50  50 100 CALM      30.05S
$$

WAZ020-022-039-040-504-511-512-271100-
SOUTHWEST INTERIOR

CITY           SKY/WX    TMP DP  RH WIND       PRES   REMARKS
SHELTON        CLOUDY    51  49  92 W7        30.04S
OLYMPIA        PTCLDY    51  49  92 S3        30.05S
CHEHALIS       MOCLDY    52  52 100 CALM      30.06S
KELSO          CLOUDY    55  48  76 CALM      30.10S
VANCOUVER      CLEAR     56  51  84 VRB3      30.05R
SCAPPOOSE, OR  CLEAR     54  50  86 N6        30.04R
PORTLAND, OR   CLEAR     57  52  83 CALM      30.05R
$$

WAZ021-516-517-271100-
WASHINGTON COAST

CITY           SKY/WX    TMP DP  RH WIND       PRES   REMARKS
FORKS          CLOUDY    50  50 100 NW3       30.07S FOG
HOQUIAM        CLOUDY    52  52 100 SW6       30.07S FOG
ASTORIA, OR    CLOUDY    52  50  93 SW5       30.08S
$$

WAZ019-023-024-040-518-519-271100-
CASCADE MOUNTAINS AND COLUMBIA GORGE

CITY           SKY/WX    TMP DP  RH WIND       PRES   REMARKS
TROUTDALE, OR  CLEAR     54  50  86 CALM      30.04R
THE DALLES, OR CLEAR     59  47  64 VRB6      29.99R
$$

WAZ026-027-041>044-520-521-271100-
EAST SLOPES

CITY           SKY/WX    TMP DP  RH WIND       PRES   REMARKS
OMAK           CLOUDY    51  46  83 CALM      30.00R
WENATCHEE      PTCLDY    59  50  72 W5        29.99R
ELLENSBURG     PTCLDY    56  47  71 NW8       30.00R
YAKIMA         CLOUDY    63  45  51 NW7       30.00R
$$

WAZ028-034-035-271100-
COLUMBIA BASIN

CITY           SKY/WX    TMP DP  RH WIND       PRES   REMARKS
EPHRATA        CLEAR     56  50  80 N5        29.97S
MOSES LAKE     CLEAR     51  49  92 N5        29.98S
PASCO          PTCLDY    57  55  93 NE3       29.97R
HERMISTON, OR  PTCLDY    53  49  86 S6        29.97R
$$

WAZ036>038-271100-
NORTHEAST WASHINGTON

CITY           SKY/WX    TMP DP  RH WIND       PRES   REMARKS
SPOKANE GEIGER PTCLDY    51  48  89 CALM      29.99R
SPOKANE FELTS  PTCLDY    51  49  92 CALM      29.99S
FAIRCHILD AFB  PTCLDY    47  47  98 CALM      29.98S
COEURDALENE,ID PTCLDY    46  39  76 NE3       29.99S
DEER PARK      CLOUDY    50  48  93 CALM      29.99S
$$

WAZ029>033-271100-
SOUTHEAST WASHINGTON

CITY           SKY/WX    TMP DP  RH WIND       PRES   REMARKS
PULLMAN        CLEAR     42  40  92 CALM      30.00R
LEWISTON, ID   CLEAR     52  47  83 CALM      29.98R
WALLA WALLA    PTCLDY    57  50  77 S6        29.97R
PENDLETON, OR  PTCLDY    53  48  83 CALM      29.98R
$$



USA.gov is the U.S. government's official web portal to all federal, state and local government web resources and services.